Location: Arboucave
(43.6130°N, 0.4343°W)
Time: 08:31:45
(UTC+00:00)

Meteor 2-3 Rocket - Pass Details

Date: 17 November 2025
Orbit: 841 x 884 km, 81.2° (Epoch: 13 December)

Event Time Altitude Azimuth Distance (km) Brightness Sun altitude
Rises 18:39:07 0° 352° (N) 3,462 6.9 -22.4°
Reaches altitude 10° 18:41:36 10° 355° (N) 2,514 6.2 -22.9°
Maximum altitude 18:47:17 67° 78° (ENE) 926 3.6 -23.9°
Enters shadow 18:50:02 31° 152° (SSE) 1,458 4.7 -24.4°
